Terminal Aerodrome Forecast
Issued by NWS Sterling, VA

Current Version | Previous Version | Graphics & Text | Print | Product List | Glossary On
Versions: 1 2 3 4 5 6 7 8 9 10 11 12 13 14 15 16 17 18 19 20 21 22 23 24
000
FTUS41 KLWX 172334
TAFDCA
TAF
KDCA 172334Z 1800/1824 VRB03KT P6SM FEW100 SCT250
     FM180800 19006KT P6SM FEW150 SCT250
     FM181200 19011G18KT P6SM SCT050 BKN140=

USA.gov is the U.S. government's official web portal to all federal, state and local government web resources and services.